WAT7832 EVLA-ENVA

Flight info

Callsign WAT7832
Flight time N/A
Altitude 37000
Route OKLAD DCT ROSAX/N0470F360 DCT NEBSI L870 XILAN/N0454F280 L870 DEGAL Y96 MAVIP N133 SOLKA T401 VEVOD
Aircraft E195/M-SDE3GILORVW/S

Departure

Time 2026-04-27 15:27
Airport Liepāja International Airport (EVLA)

Arrival

Time N/A
Airport Trondheim Airport, Værnes (ENVA)
Time Latitude Longitude Altitude Speed Heading
2026-04-27 14:36 56.51998 21.09806 12 ft 0 kts 340°
2026-04-27 15:22 56.52002 21.09804 12 ft 2 kts 338°
2026-04-27 15:22 56.52021 21.09752 11 ft 8 kts 266°
2026-04-27 15:22 56.51977 21.09680 9 ft 10 kts 176°
2026-04-27 15:23 56.51909 21.09722 9 ft 10 kts 167°
2026-04-27 15:23 56.51834 21.09747 9 ft 11 kts 167°
2026-04-27 15:23 56.51788 21.09761 9 ft 4 kts 197°
2026-04-27 15:23 56.51762 21.09720 9 ft 6 kts 241°
2026-04-27 15:24 56.51742 21.09629 8 ft 9 kts 249°
2026-04-27 15:24 56.51713 21.09481 6 ft 14 kts 250°
2026-04-27 15:24 56.51673 21.09296 6 ft 17 kts 250°
2026-04-27 15:24 56.51631 21.09078 6 ft 19 kts 252°
2026-04-27 15:25 56.51580 21.08836 6 ft 21 kts 251°
2026-04-27 15:25 56.51530 21.08567 6 ft 23 kts 250°
2026-04-27 15:25 56.51496 21.08306 6 ft 16 kts 269°
2026-04-27 15:25 56.51472 21.08197 6 ft 5 kts 186°
2026-04-27 15:26 56.51465 21.08246 6 ft 5 kts 69°
2026-04-27 15:26 56.51516 21.08494 6 ft 56 kts 70°
2026-04-27 15:26 56.51745 21.09643 9 ft 134 kts 71°
2026-04-27 15:26 56.52076 21.11417 444 ft 155 kts 67°
2026-04-27 15:27 56.52439 21.13273 1171 ft 163 kts 62°
2026-04-27 15:27 56.52797 21.15083 2086 ft 149 kts 59°
2026-04-27 15:27 56.53157 21.16866 2549 ft 156 kts 59°
2026-04-27 15:27 56.53545 21.18783 2915 ft 172 kts 59°
2026-04-27 15:28 56.54338 21.20312 3315 ft 170 kts 12°
2026-04-27 15:28 56.55521 21.20181 3635 ft 191 kts 334°
2026-04-27 15:28 56.56739 21.18851 3967 ft 219 kts 329°
2026-04-27 15:28 56.58073 21.17242 4540 ft 237 kts 328°
2026-04-27 15:29 56.59433 21.15533 5401 ft 242 kts 327°
2026-04-27 15:29 56.60794 21.13785 6437 ft 242 kts 326°
2026-04-27 15:29 56.62164 21.12006 7454 ft 243 kts 326°
2026-04-27 15:29 56.63519 21.10235 8482 ft 243 kts 326°
2026-04-27 15:30 56.64879 21.08451 9463 ft 244 kts 326°
2026-04-27 15:30 56.66238 21.06663 10395 ft 248 kts 325°
2026-04-27 15:30 56.67644 21.04811 11290 ft 253 kts 325°
2026-04-27 15:30 56.69070 21.02929 12079 ft 262 kts 326°
2026-04-27 15:31 56.70565 21.00954 12835 ft 272 kts 325°
2026-04-27 15:31 56.72102 20.98921 13710 ft 277 kts 325°
2026-04-27 15:31 56.73647 20.96876 14696 ft 279 kts 325°
2026-04-27 15:31 56.75183 20.94839 15704 ft 278 kts 325°
2026-04-27 15:32 56.76728 20.92789 16712 ft 276 kts 326°
2026-04-27 15:32 56.78270 20.90740 17640 ft 276 kts 326°
2026-04-27 15:32 56.79805 20.88700 18502 ft 276 kts 326°
2026-04-27 15:32 56.81331 20.86670 19311 ft 277 kts 326°
2026-04-27 15:33 56.82891 20.84592 20048 ft 280 kts 326°
2026-04-27 15:33 56.84454 20.82508 20744 ft 283 kts 326°
2026-04-27 15:33 56.86057 20.80368 21420 ft 287 kts 326°
2026-04-27 15:33 56.87651 20.78238 22098 ft 289 kts 326°
2026-04-27 15:34 56.89260 20.76085 22768 ft 291 kts 326°
2026-04-27 15:34 56.91093 20.74580 23360 ft 297 kts 348°
2026-04-27 15:34 56.93191 20.74571 23950 ft 305 kts 356°
2026-04-27 15:34 56.95283 20.74755 24550 ft 308 kts 356°
2026-04-27 15:35 56.97420 20.74950 25137 ft 310 kts 355°
2026-04-27 15:35 56.99588 20.75152 25661 ft 315 kts 356°
2026-04-27 15:35 57.01788 20.75359 26151 ft 320 kts 355°
2026-04-27 15:35 57.04023 20.75569 26687 ft 323 kts 356°
2026-04-27 15:36 57.06248 20.75780 27207 ft 326 kts 356°
2026-04-27 15:36 57.08515 20.75995 27723 ft 329 kts 355°
2026-04-27 15:36 57.10814 20.76213 28237 ft 332 kts 355°
2026-04-27 15:36 57.13092 20.76429 28737 ft 335 kts 355°
2026-04-27 15:37 57.15428 20.76651 29217 ft 339 kts 355°
2026-04-27 15:37 57.17786 20.76876 29733 ft 341 kts 355°
2026-04-27 15:37 57.20161 20.77101 30159 ft 345 kts 355°
2026-04-27 15:37 57.22565 20.77331 30597 ft 349 kts 355°
2026-04-27 15:38 57.24992 20.77564 31056 ft 351 kts 355°
2026-04-27 15:38 57.27409 20.77794 31430 ft 355 kts 355°
2026-04-27 15:38 57.29893 20.78031 31798 ft 359 kts 355°
2026-04-27 15:38 57.32383 20.78271 32234 ft 359 kts 356°
2026-04-27 15:39 57.34867 20.78510 32646 ft 360 kts 356°
2026-04-27 15:39 57.37335 20.78749 32995 ft 360 kts 356°
2026-04-27 15:39 57.39852 20.78990 33341 ft 361 kts 356°
2026-04-27 15:39 57.42345 20.79230 33711 ft 360 kts 356°
2026-04-27 15:40 57.44820 20.79470 34013 ft 360 kts 357°
2026-04-27 15:40 57.47322 20.79712 34280 ft 361 kts 357°
2026-04-27 15:40 57.49807 20.79952 34504 ft 362 kts 358°
2026-04-27 15:40 57.52327 20.80197 34728 ft 364 kts 358°
2026-04-27 15:41 57.54858 20.80442 34946 ft 366 kts 357°
2026-04-27 15:41 57.57396 20.80689 35173 ft 369 kts 358°
2026-04-27 15:41 57.59941 20.80937 35396 ft 370 kts 358°
2026-04-27 15:41 57.62516 20.81188 35597 ft 371 kts 358°
2026-04-27 15:42 57.65105 20.81442 35821 ft 373 kts 358°
2026-04-27 15:42 57.67686 20.81693 36022 ft 374 kts 359°
2026-04-27 15:42 57.70282 20.81948 36206 ft 376 kts 359°
2026-04-27 15:42 57.72876 20.82202 36368 ft 378 kts 359°
2026-04-27 15:43 57.75520 20.82462 36495 ft 380 kts 359°
2026-04-27 15:43 57.78162 20.82722 36633 ft 382 kts 359°
2026-04-27 15:43 57.80814 20.82983 36784 ft 384 kts 359°
2026-04-27 15:43 57.83460 20.83245 36958 ft 385 kts 359°
2026-04-27 15:44 57.86102 20.83506 37106 ft 382 kts 359°
2026-04-27 15:44 57.88732 20.83767 37131 ft 380 kts 359°
2026-04-27 15:44 57.94060 20.84293 37159 ft 390 kts 360°
2026-04-27 15:45 57.99520 20.84837 37156 ft 400 kts 360°
2026-04-27 15:45 58.05136 20.85397 37155 ft 409 kts 360°
2026-04-27 15:46 58.10857 20.85970 37159 ft 415 kts
2026-04-27 15:46 58.16604 20.86548 37160 ft 416 kts
2026-04-27 15:47 58.22324 20.87124 37159 ft 413 kts 360°
2026-04-27 15:47 58.28044 20.87703 37164 ft 415 kts 359°
2026-04-27 15:48 58.33769 20.88283 37155 ft 415 kts 360°